This is the latest recevied weather packets stored in our database for station/object K9APR. If no packets are shown the sender has not sent any weather packets the latest 10 day(s).
| Time | Temp. | Humidity | Pressure | Rain* | Wind** | Luminosity | Snow |
|---|---|---|---|---|---|---|---|
| 1787459601 | 16.67° C | 89% | 1014.4 hPa | 0 mm | - | - | - |
| 1787459061 | 16.67° C | 89% | 1014.4 hPa | 0 mm | - | - | - |
| 1787458521 | 16.67° C | 88% | 1014.3 hPa | 0 mm | - | - | - |
| 1787457983 | - | - | - | - | - | - | - |
| 1787457982 | 16.67° C | 88% | 1014.3 hPa | 0 mm | - | - | - |
| 1787457442 | 16.67° C | 88% | 1014.4 hPa | 0 mm | - | - | - |
| 1787456901 | 16.67° C | 87% | 1014.2 hPa | 0 mm | - | - | - |
| 1787456361 | 16.67° C | 87% | 1014.2 hPa | 0 mm | - | - | - |
| 1787455822 | 16.67° C | 86% | 1014.2 hPa | 0 mm | - | - | - |
| 1787455281 | 17.22° C | 86% | 1014.1 hPa | 0 mm | - | - | - |
| 1787454743 | 17.22° C | 86% | 1014 hPa | 0 mm | - | - | - |
| 1787453660 | 18.33° C | 84% | 1013.6 hPa | 0 mm | - | - | - |
| 1787453122 | 18.33° C | 83% | 1013.7 hPa | 0 mm | - | - | - |
| 1787452581 | 18.89° C | 83% | 1013.8 hPa | 0 mm | - | - | - |
| 1787452041 | 18.89° C | 82% | 1013.7 hPa | 0 mm | - | - | - |
| 1787451503 | 18.89° C | 81% | 1013.7 hPa | 0 mm | - | - | - |
| 1787450962 | 19.44° C | 82% | 1013.7 hPa | 0 mm | - | - | - |
| 1787450421 | 19.44° C | 83% | 1013.5 hPa | 0 mm | - | - | - |
| 1787449880 | 19.44° C | 84% | 1013.4 hPa | 0 mm | - | - | - |
| 1787449341 | 19.44° C | 85% | 1013.2 hPa | 0 mm | - | - | - |
| 1787448800 | 19.44° C | 84% | 1013.3 hPa | 0 mm | - | - | - |
| 1787448261 | 20° C | 84% | 1013.2 hPa | 0 mm | - | - | - |
| 1787447180 | 20° C | 82% | 1013.3 hPa | 0 mm | - | - | - |
| 1787446640 | 20° C | 82% | 1013.1 hPa | 0 mm | - | - | - |
| 1787446100 | 20.56° C | 81% | 1013.1 hPa | 0 mm | - | - | - |
* Rain latest hour (hover to see other rain measurements)
** Current wind speed in m/s (hover to see current wind gust speed)